Wetterdaten: aktuell Sonntag, 01.10.2023 14:35
Datum Zeit Temp. A. Temp. A. min Feuchte A. Luftdruck Regen Wind Richtung Richtung Sonnenschein Solar Taupunkt Windchill Windben
01.10.2023 14:35 21,7 C 21,5 C 55 % 1024,1 hPa 0,0 l/m 0,0 km/h (0 Bft) O 92 0 min 0 W/m 12,3 C 21,7 C 0,0 km/h (0 Bft)
01.10.2023 14:30 21,6 C 21,4 C 56 % 1024,2 hPa 0,0 l/m 0,0 km/h (0 Bft) SO 130 0 min 0 W/m 12,4 C 21,6 C 0,0 km/h (0 Bft)
01.10.2023 14:25 21,5 C 21,5 C 55 % 1024,3 hPa 0,0 l/m 0,0 km/h (0 Bft) N-NO 22 0 min 0 W/m 12,1 C 21,5 C 0,0 km/h (0 Bft)
01.10.2023 14:22 21,6 C 21,4 C 56 % 1024,3 hPa 0,0 l/m 0,0 km/h (0 Bft) O-SO 119 0 min 0 W/m 12,4 C 21,6 C 0,0 km/h (0 Bft)
01.10.2023 14:15 21,4 C 21,4 C 59 % 1024,4 hPa 0,0 l/m 0,0 km/h (0 Bft) N-NO 15 0 min 0 W/m 13,0 C 21,4 C 1,6 km/h (1 Bft)
01.10.2023 14:10 21,5 C 21,4 C 57 % 1024,5 hPa 0,0 l/m 0,1 km/h (0 Bft) N 360 0 min 0 W/m 12,6 C 21,5 C 4,8 km/h (1 Bft)
01.10.2023 14:05 21,4 C 21,3 C 60 % 1024,6 hPa 0,0 l/m 0,0 km/h (0 Bft) N-NW 346 0 min 0 W/m 13,3 C 21,4 C 0,0 km/h (0 Bft)
01.10.2023 14:03 21,3 C 21,2 C 60 % 1024,6 hPa 0,0 l/m 0,2 km/h (0 Bft) NO 38 0 min 0 W/m 13,2 C 21,3 C 3,2 km/h (1 Bft)
01.10.2023 13:55 21,3 C 21,3 C 57 % 1024,7 hPa 0,0 l/m 0,0 km/h (0 Bft) SO 144 0 min 0 W/m 12,4 C 21,3 C 0,0 km/h (0 Bft)
01.10.2023 13:50 21,4 C 21,3 C 57 % 1024,9 hPa 0,0 l/m 0,0 km/h (0 Bft) O-NO 69 0 min 0 W/m 12,5 C 21,4 C 0,0 km/h (0 Bft)
01.10.2023 13:45 21,3 C 21,2 C 59 % 1025,0 hPa 0,0 l/m 0,0 km/h (0 Bft) N-NW 340 0 min 0 W/m 13,0 C 21,3 C 0,0 km/h (0 Bft)
01.10.2023 13:43 21,2 C 21,2 C 58 % 1025,0 hPa 0,0 l/m 0,4 km/h (0 Bft) N-NW 340 0 min 0 W/m 12,6 C 21,2 C 3,2 km/h (1 Bft)
01.10.2023 13:35 21,2 C 21,2 C 59 % 1025,1 hPa 0,0 l/m 0,0 km/h (0 Bft) NO 51 0 min 0 W/m 12,9 C 21,2 C 1,6 km/h (1 Bft)
01.10.2023 13:30 21,3 C 21,0 C 59 % 1025,2 hPa 0,0 l/m 0,0 km/h (0 Bft) NO 40 0 min 0 W/m 13,0 C 21,3 C 0,0 km/h (0 Bft)
01.10.2023 13:25 21,0 C 20,9 C 60 % 1025,2 hPa 0,0 l/m 0,0 km/h (0 Bft) O-NO 57 0 min 0 W/m 12,9 C 21,0 C 0,0 km/h (0 Bft)
01.10.2023 13:23 20,9 C 20,9 C 61 % 1025,2 hPa 0,0 l/m 0,1 km/h (0 Bft) NO 41 0 min 0 W/m 13,1 C 20,9 C 1,6 km/h (1 Bft)
01.10.2023 13:15 21,0 C 20,8 C 59 % 1025,2 hPa 0,0 l/m 0,1 km/h (0 Bft) O-NO 65 0 min 0 W/m 12,7 C 21,0 C 4,8 km/h (1 Bft)
01.10.2023 13:10 20,8 C 20,6 C 60 % 1025,3 hPa 0,0 l/m 0,2 km/h (0 Bft) O 100 0 min 0 W/m 12,7 C 20,8 C 9,7 km/h (2 Bft)
01.10.2023 13:05 20,6 C 20,6 C 63 % 1025,4 hPa 0,0 l/m 0,0 km/h (0 Bft) O-NO 57 0 min 0 W/m 13,3 C 20,6 C 0,0 km/h (0 Bft)
01.10.2023 13:03 20,6 C 20,2 C 62 % 1025,3 hPa 0,0 l/m 0,0 km/h (0 Bft) O-NO 57 0 min 0 W/m 13,1 C 20,6 C 1,6 km/h (1 Bft)
01.10.2023 12:55 20,3 C 20,3 C 63 % 1025,4 hPa 0,0 l/m 0,0 km/h (0 Bft) NO 52 0 min 0 W/m 13,0 C 20,3 C 1,6 km/h (1 Bft)
01.10.2023 12:50 20,4 C 20,1 C 63 % 1025,4 hPa 0,0 l/m 0,0 km/h (0 Bft) NO 53 0 min 0 W/m 13,1 C 20,4 C 0,0 km/h (0 Bft)
01.10.2023 12:45 20,1 C 20,0 C 63 % 1025,4 hPa 0,0 l/m 0,2 km/h (0 Bft) O-NO 69 0 min 0 W/m 12,8 C 20,1 C 3,2 km/h (1 Bft)
01.10.2023 12:43 20,0 C 19,6 C 64 % 1025,5 hPa 0,0 l/m 0,5 km/h (0 Bft) S-SO 168 0 min 0 W/m 13,0 C 20,0 C 4,8 km/h (1 Bft)
01.10.2023 12:35 19,6 C 18,8 C 68 % 1025,5 hPa 0,0 l/m 0,0 km/h (0 Bft) O-NO 67 0 min 0 W/m 13,5 C 19,6 C 0,0 km/h (0 Bft)
01.10.2023 12:30 18,9 C 18,6 C 71 % 1025,4 hPa 0,0 l/m 0,0 km/h (0 Bft) O-NO 60 0 min 0 W/m 13,5 C 18,9 C 0,0 km/h (0 Bft)
01.10.2023 12:25 18,6 C 18,4 C 74 % 1025,5 hPa 0,0 l/m 0,0 km/h (0 Bft) NO 53 0 min 0 W/m 13,9 C 18,6 C 0,0 km/h (0 Bft)
01.10.2023 12:23 18,4 C 17,9 C 75 % 1025,5 hPa 0,0 l/m 0,0 km/h (0 Bft) N-NO 18 0 min 0 W/m 13,9 C 18,4 C 1,6 km/h (1 Bft)
01.10.2023 12:15 17,9 C 17,7 C 77 % 1025,7 hPa 0,0 l/m 0,0 km/h (0 Bft) O-NO 62 0 min 0 W/m 13,8 C 17,9 C 0,0 km/h (0 Bft)
01.10.2023 12:10 17,7 C 17,4 C 79 % 1025,6 hPa 0,0 l/m 0,0 km/h (0 Bft) N-NW 348 0 min 0 W/m 14,0 C 17,7 C 0,0 km/h (0 Bft)
01.10.2023 12:05 17,4 C 17,2 C 81 % 1025,6 hPa 0,0 l/m 0,8 km/h (0 Bft) NO 38 0 min 0 W/m 14,1 C 17,4 C 4,8 km/h (1 Bft)
01.10.2023 12:03 17,2 C 16,7 C 81 % 1025,6 hPa 0,0 l/m 0,0 km/h (0 Bft) N-NW 336 0 min 0 W/m 13,9 C 17,2 C 0,0 km/h (0 Bft)
01.10.2023 11:55 16,7 C 16,4 C 81 % 1025,8 hPa 0,0 l/m 0,0 km/h (0 Bft) NO 38 0 min 0 W/m 13,4 C 16,7 C 0,0 km/h (0 Bft)
01.10.2023 11:50 16,4 C 16,1 C 84 % 1025,8 hPa 0,0 l/m 0,0 km/h (0 Bft) O-NO 58 0 min 0 W/m 13,7 C 16,4 C 0,0 km/h (0 Bft)
01.10.2023 11:45 16,1 C 15,8 C 85 % 1025,8 hPa 0,0 l/m 0,0 km/h (0 Bft) NO 40 0 min 0 W/m 13,6 C 16,1 C 0,0 km/h (0 Bft)
01.10.2023 11:41 15,8 C 15,4 C 87 % 1025,8 hPa 0,0 l/m 0,0 km/h (0 Bft) NO 40 0 min 0 W/m 13,6 C 15,8 C 0,0 km/h (0 Bft)
01.10.2023 11:35 15,4 C 15,1 C 89 % 1025,9 hPa 0,0 l/m 0,8 km/h (0 Bft) O-NO 59 0 min 0 W/m 13,6 C 15,4 C 6,4 km/h (2 Bft)
01.10.2023 11:30 15,1 C 14,9 C 91 % 1025,9 hPa 0,0 l/m 0,0 km/h (0 Bft) NO 49 0 min 0 W/m 13,6 C 15,1 C 0,0 km/h (0 Bft)
01.10.2023 11:25 14,9 C 14,7 C 93 % 1026,0 hPa 0,0 l/m 0,0 km/h (0 Bft) NO 55 0 min 0 W/m 13,8 C 14,9 C 0,0 km/h (0 Bft)
01.10.2023 11:22 14,7 C 14,3 C 93 % 1026,0 hPa 0,0 l/m 0,0 km/h (0 Bft) NO 52 0 min 0 W/m 13,6 C 14,7 C 0,0 km/h (0 Bft)
01.10.2023 11:15 14,3 C 14,1 C 95 % 1026,1 hPa 0,0 l/m 0,0 km/h (0 Bft) O-NO 63 0 min 0 W/m 13,5 C 14,3 C 0,0 km/h (0 Bft)
01.10.2023 11:10 14,1 C 13,8 C 95 % 1026,0 hPa 0,0 l/m 0,0 km/h (0 Bft) N-NO 26 0 min 0 W/m 13,3 C 14,1 C 0,0 km/h (0 Bft)
01.10.2023 11:05 13,8 C 13,6 C 95 % 1026,1 hPa 0,0 l/m 0,0 km/h (0 Bft) N 11 0 min 0 W/m 13,0 C 13,8 C 0,0 km/h (0 Bft)
01.10.2023 11:00 13,6 C 13,3 C 96 % 1026,0 hPa 0,0 l/m 0,0 km/h (0 Bft) O-NO 59 0 min 0 W/m 13,0 C 13,6 C 0,0 km/h (0 Bft)
01.10.2023 10:56 13,3 C 13,1 C 96 % 1026,1 hPa 0,0 l/m 0,0 km/h (0 Bft) NO 37 0 min 0 W/m 12,7 C 13,3 C 0,0 km/h (0 Bft)
01.10.2023 10:50 13,1 C 12,8 C 96 % 1026,1 hPa 0,0 l/m 0,0 km/h (0 Bft) NO 40 0 min 0 W/m 12,5 C 13,1 C 1,6 km/h (1 Bft)
01.10.2023 10:45 12,8 C 12,6 C 96 % 1026,1 hPa 0,0 l/m 0,0 km/h (0 Bft) NO 51 0 min 0 W/m 12,2 C 12,8 C 0,0 km/h (0 Bft)
01.10.2023 10:40 12,6 C 12,3 C 96 % 1026,2 hPa 0,0 l/m 0,0 km/h (0 Bft) N 5 0 min 0 W/m 12,0 C 12,6 C 0,0 km/h (0 Bft)
01.10.2023 10:38 12,3 C 12,1 C 96 % 1026,2 hPa 0,0 l/m 0,0 km/h (0 Bft) N-NO 33 0 min 0 W/m 11,7 C 12,3 C 0,0 km/h (0 Bft)
01.10.2023 10:30 12,1 C 11,9 C 96 % 1026,2 hPa 0,0 l/m 0,0 km/h (0 Bft) N-NO 26 0 min 0 W/m 11,5 C 12,1 C 0,0 km/h (0 Bft)
01.10.2023 10:25 11,9 C 11,7 C 96 % 1026,2 hPa 0,0 l/m 0,0 km/h (0 Bft) NO 53 0 min 0 W/m 11,3 C 11,9 C 0,0 km/h (0 Bft)
01.10.2023 10:20 11,7 C 11,6 C 96 % 1026,1 hPa 0,0 l/m 0,0 km/h (0 Bft) O-NO 58 0 min 0 W/m 11,1 C 11,7 C 0,0 km/h (0 Bft)
01.10.2023 10:18 11,6 C 11,2 C 96 % 1026,1 hPa 0,0 l/m 0,0 km/h (0 Bft) O-NO 57 0 min 0 W/m 11,0 C 11,6 C 0,0 km/h (0 Bft)
01.10.2023 10:10 11,2 C 11,0 C 95 % 1026,2 hPa 0,0 l/m 0,0 km/h (0 Bft) N-NO 14 0 min 0 W/m 10,4 C 11,2 C 1,6 km/h (1 Bft)
01.10.2023 10:05 11,0 C 10,8 C 95 % 1026,1 hPa 0,0 l/m 0,3 km/h (0 Bft) O-NO 58 0 min 0 W/m 10,2 C 11,0 C 6,4 km/h (2 Bft)
01.10.2023 10:00 10,8 C 10,7 C 95 % 1026,1 hPa 0,0 l/m 2,4 km/h (1 Bft) NO 35 0 min 0 W/m 10,0 C 10,8 C 6,4 km/h (2 Bft)
01.10.2023 09:58 10,7 C 10,3 C 95 % 1026,1 hPa 0,0 l/m 0,6 km/h (0 Bft) N 10 0 min 0 W/m 9,9 C 10,7 C 4,8 km/h (1 Bft)
01.10.2023 09:50 10,4 C 10,2 C 95 % 1026,1 hPa 0,0 l/m 0,0 km/h (0 Bft) N-NO 28 0 min 0 W/m 9,6 C 10,4 C 0,0 km/h (0 Bft)
01.10.2023 09:45 10,2 C 9,9 C 94 % 1026,1 hPa 0,0 l/m 0,0 km/h (0 Bft) N-NO 13 0 min 0 W/m 9,3 C 10,2 C 0,0 km/h (0 Bft)
01.10.2023 09:40 10,0 C 9,9 C 94 % 1026,1 hPa 0,0 l/m 0,0 km/h (0 Bft) N-NO 24 0 min 0 W/m 9,1 C 10,0 C 0,0 km/h (0 Bft)
01.10.2023 09:38 9,9 C 9,7 C 94 % 1026,1 hPa 0,0 l/m 0,0 km/h (0 Bft) N 5 0 min 0 W/m 9,0 C 9,9 C 0,0 km/h (0 Bft)
01.10.2023 09:30 9,7 C 9,6 C 93 % 1026,0 hPa 0,0 l/m 0,0 km/h (0 Bft) NO 51 0 min 0 W/m 8,6 C 9,7 C 1,6 km/h (1 Bft)
01.10.2023 09:25 9,6 C 9,4 C 93 % 1026,0 hPa 0,0 l/m 0,0 km/h (0 Bft) O-NO 59 0 min 0 W/m 8,5 C 9,6 C 1,6 km/h (1 Bft)
01.10.2023 09:20 9,4 C 9,4 C 93 % 1026,0 hPa 0,0 l/m 0,0 km/h (0 Bft) O-SO 115 0 min 0 W/m 8,3 C 9,4 C 0,0 km/h (0 Bft)
01.10.2023 09:18 9,4 C 9,2 C 93 % 1026,0 hPa 0,0 l/m 0,0 km/h (0 Bft) O-SO 115 0 min 0 W/m 8,3 C 9,4 C 0,0 km/h (0 Bft)
01.10.2023 09:10 9,2 C 9,2 C 92 % 1025,9 hPa 0,0 l/m 0,0 km/h (0 Bft) O-SO 115 0 min 0 W/m 8,0 C 9,2 C 0,0 km/h (0 Bft)
01.10.2023 09:05 9,2 C 9,1 C 92 % 1025,9 hPa 0,0 l/m 0,0 km/h (0 Bft) O-SO 115 0 min 0 W/m 8,0 C 9,2 C 0,0 km/h (0 Bft)
01.10.2023 09:00 9,1 C 9,0 C 92 % 1025,9 hPa 0,0 l/m 0,0 km/h (0 Bft) O-SO 115 0 min 0 W/m 7,9 C 9,1 C 0,0 km/h (0 Bft)
01.10.2023 08:58 9,0 C 8,9 C 92 % 1025,9 hPa 0,0 l/m 0,0 km/h (0 Bft) O-SO 115 0 min 0 W/m 7,8 C 9,0 C 0,0 km/h (0 Bft)
01.10.2023 08:50 8,9 C 8,8 C 92 % 1025,8 hPa 0,0 l/m 0,0 km/h (0 Bft) O-SO 115 0 min 0 W/m 7,7 C 8,9 C 0,0 km/h (0 Bft)
01.10.2023 08:45 8,8 C 8,7 C 91 % 1025,8 hPa 0,0 l/m 0,0 km/h (0 Bft) O-SO 115 0 min 0 W/m 7,4 C 8,8 C 0,0 km/h (0 Bft)
01.10.2023 08:40 8,8 C 8,7 C 91 % 1025,8 hPa 0,0 l/m 0,0 km/h (0 Bft) O-SO 115 0 min 0 W/m 7,4 C 8,8 C 0,0 km/h (0 Bft)
01.10.2023 08:38 8,7 C 8,6 C 91 % 1025,8 hPa 0,0 l/m 0,0 km/h (0 Bft) O-SO 115 0 min 0 W/m 7,3 C 8,7 C 0,0 km/h (0 Bft)
01.10.2023 08:30 8,6 C 8,6 C 90 % 1025,6 hPa 0,0 l/m 0,0 km/h (0 Bft) O-SO 115 0 min 0 W/m 7,1 C 8,6 C 0,0 km/h (0 Bft)
01.10.2023 08:25 8,6 C 8,6 C 90 % 1025,7 hPa 0,0 l/m 0,1 km/h (0 Bft) O-SO 115 0 min 0 W/m 7,1 C 8,6 C 1,6 km/h (1 Bft)
01.10.2023 08:20 8,6 C 8,6 C 90 % 1025,8 hPa 0,0 l/m 0,0 km/h (0 Bft) O-SO 115 0 min 0 W/m 7,1 C 8,6 C 0,0 km/h (0 Bft)
01.10.2023 08:18 8,6 C 8,5 C 90 % 1025,8 hPa 0,0 l/m 0,0 km/h (0 Bft) O-SO 115 0 min 0 W/m 7,1 C 8,6 C 0,0 km/h (0 Bft)
01.10.2023 08:10 8,5 C 8,5 C 89 % 1025,7 hPa 0,0 l/m 0,0 km/h (0 Bft) O-SO 115 0 min 0 W/m 6,8 C 8,5 C 0,0 km/h (0 Bft)
01.10.2023 08:05 8,6 C 8,5 C 89 % 1025,6 hPa 0,0 l/m 0,0 km/h (0 Bft) O-SO 115 0 min 0 W/m 6,9 C 8,6 C 0,0 km/h (0 Bft)
01.10.2023 08:00 8,6 C 8,5 C 89 % 1025,6 hPa 0,0 l/m 0,0 km/h (0 Bft) O-SO 115 0 min 0 W/m 6,9 C 8,6 C 0,0 km/h (0 Bft)
01.10.2023 07:58 8,5 C 8,5 C 89 % 1025,6 hPa 0,0 l/m 0,0 km/h (0 Bft) O-SO 115 0 min 0 W/m 6,8 C 8,5 C 0,0 km/h (0 Bft)
01.10.2023 07:50 8,5 C 8,5 C 89 % 1025,5 hPa 0,0 l/m 0,0 km/h (0 Bft) O-SO 115 0 min 0 W/m 6,8 C 8,5 C 0,0 km/h (0 Bft)
01.10.2023 07:45 8,6 C 8,5 C 89 % 1025,5 hPa 0,0 l/m 0,0 km/h (0 Bft) O-SO 115 0 min 0 W/m 6,9 C 8,6 C 0,0 km/h (0 Bft)
01.10.2023 07:40 8,6 C 8,5 C 89 % 1025,4 hPa 0,0 l/m 0,0 km/h (0 Bft) O-SO 115 0 min 0 W/m 6,9 C 8,6 C 0,0 km/h (0 Bft)
01.10.2023 07:38 8,5 C 8,5 C 89 % 1025,5 hPa 0,0 l/m 0,0 km/h (0 Bft) O-SO 115 0 min 0 W/m 6,8 C 8,5 C 0,0 km/h (0 Bft)
01.10.2023 07:30 8,6 C 8,6 C 89 % 1025,3 hPa 0,0 l/m 0,0 km/h (0 Bft) O-SO 115 0 min 0 W/m 6,9 C 8,6 C 0,0 km/h (0 Bft)
01.10.2023 07:25 8,6 C 8,6 C 88 % 1025,4 hPa 0,0 l/m 0,0 km/h (0 Bft) O-SO 115 0 min 0 W/m 6,7 C 8,6 C 0,0 km/h (0 Bft)
01.10.2023 07:20 8,6 C 8,6 C 88 % 1025,3 hPa 0,0 l/m 0,0 km/h (0 Bft) O-SO 115 0 min 0 W/m 6,7 C 8,6 C 0,0 km/h (0 Bft)
01.10.2023 07:15 8,6 C 8,6 C 89 % 1025,3 hPa 0,0 l/m 0,0 km/h (0 Bft) O-SO 115 0 min 0 W/m 6,9 C 8,6 C 0,0 km/h (0 Bft)
01.10.2023 07:10 8,7 C 8,7 C 88 % 1025,2 hPa 0,0 l/m 0,0 km/h (0 Bft) O-SO 115 0 min 0 W/m 6,8 C 8,7 C 0,0 km/h (0 Bft)
01.10.2023 07:05 8,7 C 8,7 C 88 % 1025,2 hPa 0,0 l/m 0,0 km/h (0 Bft) O-SO 115 0 min 0 W/m 6,8 C 8,7 C 0,0 km/h (0 Bft)
01.10.2023 07:00 8,7 C 8,7 C 88 % 1025,2 hPa 0,0 l/m 0,0 km/h (0 Bft) O-SO 115 0 min 0 W/m 6,8 C 8,7 C 0,0 km/h (0 Bft)
01.10.2023 06:55 8,8 C 8,8 C 88 % 1025,1 hPa 0,0 l/m 0,0 km/h (0 Bft) O-SO 115 0 min 0 W/m 6,9 C 8,8 C 0,0 km/h (0 Bft)
01.10.2023 06:50 8,8 C 8,8 C 88 % 1024,9 hPa 0,0 l/m 0,0 km/h (0 Bft) O-SO 115 0 min 0 W/m 6,9 C 8,8 C 0,0 km/h (0 Bft)
01.10.2023 06:45 8,8 C 8,8 C 88 % 1024,9 hPa 0,0 l/m 0,0 km/h (0 Bft) O-SO 115 0 min 0 W/m 6,9 C 8,8 C 0,0 km/h (0 Bft)
01.10.2023 06:40 8,9 C 8,8 C 88 % 1024,9 hPa 0,0 l/m 0,0 km/h (0 Bft) O-SO 115 0 min 0 W/m 7,0 C 8,9 C 0,0 km/h (0 Bft)
01.10.2023 06:35 8,9 C 8,9 C 88 % 1024,9 hPa 0,0 l/m 0,0 km/h (0 Bft) O-SO 115 0 min 0 W/m 7,0 C 8,9 C 0,0 km/h (0 Bft)
01.10.2023 06:30 8,9 C 8,9 C 88 % 1024,9 hPa 0,0 l/m 0,0 km/h (0 Bft) O-SO 115 0 min 0 W/m 7,0 C 8,9 C 0,0 km/h (0 Bft)
01.10.2023 06:25 9,0 C 9,0 C 88 % 1025,0 hPa 0,0 l/m 0,0 km/h (0 Bft) O-SO 115 0 min 0 W/m 7,1 C 9,0 C 0,0 km/h (0 Bft)
01.10.2023 06:20 9,1 C 9,0 C 88 % 1025,0 hPa 0,0 l/m 0,0 km/h (0 Bft) O-SO 115 0 min 0 W/m 7,2 C 9,1 C 0,0 km/h (0 Bft)
01.10.2023 06:15 9,1 C 9,1 C 88 % 1025,1 hPa 0,0 l/m 0,0 km/h (0 Bft) O-SO 115 0 min 0 W/m 7,2 C 9,1 C 0,0 km/h (0 Bft)
01.10.2023 06:10 9,1 C 9,1 C 88 % 1025,1 hPa 0,0 l/m 0,0 km/h (0 Bft) O-SO 115 0 min 0 W/m 7,2 C 9,1 C 0,0 km/h (0 Bft)
01.10.2023 06:05 9,2 C 9,2 C 88 % 1025,1 hPa 0,0 l/m 0,0 km/h (0 Bft) O-SO 116 0 min 0 W/m 7,3 C 9,2 C 0,0 km/h (0 Bft)
01.10.2023 06:00 9,2 C 9,2 C 88 % 1025,1 hPa 0,0 l/m 0,0 km/h (0 Bft) O-SO 116 0 min 0 W/m 7,3 C 9,2 C 0,0 km/h (0 Bft)
01.10.2023 05:55 9,3 C 9,2 C 88 % 1025,1 hPa 0,0 l/m 0,0 km/h (0 Bft) O-SO 116 0 min 0 W/m 7,4 C 9,3 C 0,0 km/h (0 Bft)
01.10.2023 05:50 9,3 C 9,3 C 88 % 1025,1 hPa 0,0 l/m 0,0 km/h (0 Bft) O-SO 116 0 min 0 W/m 7,4 C 9,3 C 0,0 km/h (0 Bft)
01.10.2023 05:45 9,3 C 9,3 C 88 % 1025,1 hPa 0,0 l/m 0,0 km/h (0 Bft) O-SO 116 0 min 0 W/m 7,4 C 9,3 C 0,0 km/h (0 Bft)
01.10.2023 05:40 9,3 C 9,3 C 88 % 1025,1 hPa 0,0 l/m 0,0 km/h (0 Bft) O-SO 116 0 min 0 W/m 7,4 C 9,3 C 0,0 km/h (0 Bft)
01.10.2023 05:35 9,4 C 9,3 C 88 % 1025,0 hPa 0,0 l/m 0,0 km/h (0 Bft) O-SO 116 0 min 0 W/m 7,5 C 9,4 C 0,0 km/h (0 Bft)
01.10.2023 05:30 9,4 C 9,4 C 88 % 1025,1 hPa 0,0 l/m 0,0 km/h (0 Bft) O-SO 116 0 min 0 W/m 7,5 C 9,4 C 0,0 km/h (0 Bft)
01.10.2023 05:25 9,4 C 9,4 C 87 % 1025,1 hPa 0,0 l/m 0,0 km/h (0 Bft) O-SO 116 0 min 0 W/m 7,3 C 9,4 C 0,0 km/h (0 Bft)
01.10.2023 05:20 9,5 C 9,4 C 87 % 1025,1 hPa 0,0 l/m 0,0 km/h (0 Bft) O-SO 116 0 min 0 W/m 7,4 C 9,5 C 0,0 km/h (0 Bft)
01.10.2023 05:15 9,5 C 9,5 C 87 % 1025,1 hPa 0,0 l/m 0,0 km/h (0 Bft) O-SO 116 0 min 0 W/m 7,4 C 9,5 C 0,0 km/h (0 Bft)
01.10.2023 05:10 9,6 C 9,6 C 87 % 1025,2 hPa 0,0 l/m 0,0 km/h (0 Bft) O-SO 116 0 min 0 W/m 7,5 C 9,6 C 0,0 km/h (0 Bft)
01.10.2023 05:05 9,6 C 9,6 C 87 % 1025,2 hPa 0,0 l/m 0,0 km/h (0 Bft) O-SO 116 0 min 0 W/m 7,5 C 9,6 C 0,0 km/h (0 Bft)
01.10.2023 05:00 9,6 C 9,6 C 87 % 1025,3 hPa 0,0 l/m 0,0 km/h (0 Bft) O-SO 116 0 min 0 W/m 7,5 C 9,6 C 0,0 km/h (0 Bft)
01.10.2023 04:55 9,7 C 9,7 C 87 % 1025,3 hPa 0,0 l/m 0,0 km/h (0 Bft) O-SO 116 0 min 0 W/m 7,6 C 9,7 C 0,0 km/h (0 Bft)
01.10.2023 04:50 9,7 C 9,7 C 87 % 1025,2 hPa 0,0 l/m 0,0 km/h (0 Bft) O-SO 116 0 min 0 W/m 7,6 C 9,7 C 0,0 km/h (0 Bft)
01.10.2023 04:45 9,8 C 9,8 C 87 % 1025,2 hPa 0,0 l/m 0,0 km/h (0 Bft) O-SO 116 0 min 0 W/m 7,7 C 9,8 C 0,0 km/h (0 Bft)
01.10.2023 04:40 9,8 C 9,8 C 87 % 1025,3 hPa 0,0 l/m 0,0 km/h (0 Bft) O-SO 116 0 min 0 W/m 7,7 C 9,8 C 0,0 km/h (0 Bft)
01.10.2023 04:35 9,9 C 9,9 C 87 % 1025,3 hPa 0,0 l/m 0,0 km/h (0 Bft) O-SO 116 0 min 0 W/m 7,8 C 9,9 C 0,0 km/h (0 Bft)
01.10.2023 04:30 9,9 C 9,9 C 87 % 1025,4 hPa 0,0 l/m 0,0 km/h (0 Bft) O-SO 116 0 min 0 W/m 7,8 C 9,9 C 0,0 km/h (0 Bft)
01.10.2023 04:25 10,0 C 10,0 C 87 % 1025,4 hPa 0,0 l/m 0,0 km/h (0 Bft) O-SO 116 0 min 0 W/m 7,9 C 10,0 C 0,0 km/h (0 Bft)
01.10.2023 04:20 10,1 C 10,1 C 87 % 1025,4 hPa 0,0 l/m 0,0 km/h (0 Bft) O-SO 116 0 min 0 W/m 8,0 C 10,1 C 0,0 km/h (0 Bft)
01.10.2023 04:15 10,1 C 10,1 C 87 % 1025,3 hPa 0,0 l/m 0,0 km/h (0 Bft) O-SO 116 0 min 0 W/m 8,0 C 10,1 C 0,0 km/h (0 Bft)
01.10.2023 04:10 10,2 C 10,2 C 87 % 1025,4 hPa 0,0 l/m 0,0 km/h (0 Bft) O-SO 116 0 min 0 W/m 8,1 C 10,2 C 0,0 km/h (0 Bft)
01.10.2023 04:05 10,2 C 10,2 C 87 % 1025,3 hPa 0,0 l/m 0,0 km/h (0 Bft) O-SO 116 0 min 0 W/m 8,1 C 10,2 C 0,0 km/h (0 Bft)
01.10.2023 04:00 10,3 C 10,3 C 86 % 1025,4 hPa 0,0 l/m 0,0 km/h (0 Bft) O-SO 116 0 min 0 W/m 8,1 C 10,3 C 0,0 km/h (0 Bft)
01.10.2023 03:55 10,3 C 10,3 C 86 % 1025,3 hPa 0,0 l/m 0,0 km/h (0 Bft) O-SO 116 0 min 0 W/m 8,1 C 10,3 C 0,0 km/h (0 Bft)
01.10.2023 03:50 10,4 C 10,4 C 86 % 1025,4 hPa 0,0 l/m 0,0 km/h (0 Bft) O-SO 116 0 min 0 W/m 8,2 C 10,4 C 0,0 km/h (0 Bft)
01.10.2023 03:45 10,4 C 10,4 C 86 % 1025,4 hPa 0,0 l/m 0,0 km/h (0 Bft) O-SO 117 0 min 0 W/m 8,2 C 10,4 C 0,0 km/h (0 Bft)
01.10.2023 03:40 10,5 C 10,5 C 86 % 1025,5 hPa 0,0 l/m 0,0 km/h (0 Bft) SW 216 0 min 0 W/m 8,3 C 10,5 C 0,0 km/h (0 Bft)
01.10.2023 03:35 10,6 C 10,6 C 86 % 1025,5 hPa 0,0 l/m 0,0 km/h (0 Bft) SW 216 0 min 0 W/m 8,4 C 10,6 C 0,0 km/h (0 Bft)
01.10.2023 03:30 10,6 C 10,6 C 86 % 1025,5 hPa 0,0 l/m 0,0 km/h (0 Bft) SW 216 0 min 0 W/m 8,4 C 10,6 C 0,0 km/h (0 Bft)
01.10.2023 03:25 10,6 C 10,6 C 86 % 1025,5 hPa 0,0 l/m 0,0 km/h (0 Bft) SW 216 0 min 0 W/m 8,4 C 10,6 C 0,0 km/h (0 Bft)
01.10.2023 03:20 10,7 C 10,7 C 86 % 1025,5 hPa 0,0 l/m 0,0 km/h (0 Bft) SW 216 0 min 0 W/m 8,5 C 10,7 C 0,0 km/h (0 Bft)
01.10.2023 03:15 10,8 C 10,8 C 86 % 1025,5 hPa 0,0 l/m 0,0 km/h (0 Bft) SW 216 0 min 0 W/m 8,6 C 10,8 C 0,0 km/h (0 Bft)
01.10.2023 03:10 10,8 C 10,8 C 86 % 1025,5 hPa 0,0 l/m 0,0 km/h (0 Bft) SW 216 0 min 0 W/m 8,6 C 10,8 C 0,0 km/h (0 Bft)
01.10.2023 03:05 10,9 C 10,8 C 86 % 1025,5 hPa 0,0 l/m 0,0 km/h (0 Bft) SW 216 0 min 0 W/m 8,7 C 10,9 C 0,0 km/h (0 Bft)
01.10.2023 03:00 10,9 C 10,9 C 86 % 1025,5 hPa 0,0 l/m 0,0 km/h (0 Bft) SW 216 0 min 0 W/m 8,7 C 10,9 C 0,0 km/h (0 Bft)
01.10.2023 02:55 10,9 C 10,9 C 85 % 1025,5 hPa 0,0 l/m 0,0 km/h (0 Bft) SW 216 0 min 0 W/m 8,5 C 10,9 C 0,0 km/h (0 Bft)
01.10.2023 02:50 11,0 C 11,0 C 85 % 1025,5 hPa 0,0 l/m 0,0 km/h (0 Bft) SW 216 0 min 0 W/m 8,6 C 11,0 C 0,0 km/h (0 Bft)
01.10.2023 02:45 11,1 C 11,1 C 85 % 1025,5 hPa 0,0 l/m 0,0 km/h (0 Bft) SW 216 0 min 0 W/m 8,7 C 11,1 C 0,0 km/h (0 Bft)
01.10.2023 02:40 11,1 C 11,1 C 85 % 1025,5 hPa 0,0 l/m 0,0 km/h (0 Bft) SW 216 0 min 0 W/m 8,7 C 11,1 C 0,0 km/h (0 Bft)
01.10.2023 02:35 11,2 C 11,2 C 85 % 1025,6 hPa 0,0 l/m 0,0 km/h (0 Bft) SW 216 0 min 0 W/m 8,8 C 11,2 C 0,0 km/h (0 Bft)
01.10.2023 02:30 11,3 C 11,2 C 85 % 1025,5 hPa 0,0 l/m 0,0 km/h (0 Bft) SW 216 0 min 0 W/m 8,9 C 11,3 C 0,0 km/h (0 Bft)
01.10.2023 02:25 11,3 C 11,3 C 85 % 1025,5 hPa 0,0 l/m 0,0 km/h (0 Bft) SW 216 0 min 0 W/m 8,9 C 11,3 C 0,0 km/h (0 Bft)
01.10.2023 02:20 11,4 C 11,4 C 85 % 1025,4 hPa 0,0 l/m 0,0 km/h (0 Bft) SW 216 0 min 0 W/m 9,0 C 11,4 C 0,0 km/h (0 Bft)
01.10.2023 02:15 11,4 C 11,4 C 85 % 1025,5 hPa 0,0 l/m 0,0 km/h (0 Bft) SW 216 0 min 0 W/m 9,0 C 11,4 C 0,0 km/h (0 Bft)
01.10.2023 02:10 11,4 C 11,4 C 85 % 1025,5 hPa 0,0 l/m 0,0 km/h (0 Bft) SW 216 0 min 0 W/m 9,0 C 11,4 C 0,0 km/h (0 Bft)
01.10.2023 02:05 11,6 C 11,6 C 85 % 1025,5 hPa 0,0 l/m 0,0 km/h (0 Bft) SW 216 0 min 0 W/m 9,2 C 11,6 C 0,0 km/h (0 Bft)
01.10.2023 02:00 11,6 C 11,6 C 85 % 1025,6 hPa 0,0 l/m 0,0 km/h (0 Bft) SW 216 0 min 0 W/m 9,2 C 11,6 C 0,0 km/h (0 Bft)
01.10.2023 01:55 11,7 C 11,6 C 85 % 1025,6 hPa 0,0 l/m 0,0 km/h (0 Bft) SW 216 0 min 0 W/m 9,3 C 11,7 C 0,0 km/h (0 Bft)
01.10.2023 01:50 11,7 C 11,7 C 84 % 1025,6 hPa 0,0 l/m 0,0 km/h (0 Bft) SW 216 0 min 0 W/m 9,1 C 11,7 C 0,0 km/h (0 Bft)
01.10.2023 01:45 11,8 C 11,8 C 85 % 1025,6 hPa 0,0 l/m 0,0 km/h (0 Bft) SW 216 0 min 0 W/m 9,4 C 11,8 C 0,0 km/h (0 Bft)
01.10.2023 01:40 11,8 C 11,8 C 85 % 1025,6 hPa 0,0 l/m 0,0 km/h (0 Bft) SW 216 0 min 0 W/m 9,4 C 11,8 C 0,0 km/h (0 Bft)
01.10.2023 01:35 11,9 C 11,9 C 85 % 1025,7 hPa 0,0 l/m 0,0 km/h (0 Bft) SW 216 0 min 0 W/m 9,5 C 11,9 C 0,0 km/h (0 Bft)
01.10.2023 01:30 11,9 C 11,9 C 84 % 1025,6 hPa 0,0 l/m 0,0 km/h (0 Bft) SW 216 0 min 0 W/m 9,3 C 11,9 C 0,0 km/h (0 Bft)
01.10.2023 01:25 12,1 C 12,1 C 84 % 1025,7 hPa 0,0 l/m 0,0 km/h (0 Bft) S-SW 213 0 min 0 W/m 9,5 C 12,1 C 0,0 km/h (0 Bft)
01.10.2023 01:20 12,2 C 12,2 C 84 % 1025,7 hPa 0,0 l/m 0,0 km/h (0 Bft) S-SW 213 0 min 0 W/m 9,6 C 12,2 C 0,0 km/h (0 Bft)
01.10.2023 01:15 12,2 C 12,2 C 84 % 1025,7 hPa 0,0 l/m 0,0 km/h (0 Bft) S-SW 213 0 min 0 W/m 9,6 C 12,2 C 0,0 km/h (0 Bft)
01.10.2023 01:10 12,3 C 12,3 C 84 % 1025,7 hPa 0,0 l/m 0,0 km/h (0 Bft) S-SW 213 0 min 0 W/m 9,7 C 12,3 C 0,0 km/h (0 Bft)
01.10.2023 01:05 12,4 C 12,4 C 84 % 1025,7 hPa 0,0 l/m 0,0 km/h (0 Bft) S-SW 213 0 min 0 W/m 9,8 C 12,4 C 0,0 km/h (0 Bft)
01.10.2023 01:00 12,4 C 12,4 C 84 % 1025,7 hPa 0,0 l/m 0,0 km/h (0 Bft) S-SW 213 0 min 0 W/m 9,8 C 12,4 C 0,0 km/h (0 Bft)
01.10.2023 00:55 12,6 C 12,5 C 84 % 1025,7 hPa 0,0 l/m 0,0 km/h (0 Bft) S-SW 213 0 min 0 W/m 10,0 C 12,6 C 0,0 km/h (0 Bft)
01.10.2023 00:50 12,6 C 12,6 C 83 % 1025,7 hPa 0,0 l/m 0,0 km/h (0 Bft) S-SW 213 0 min 0 W/m 9,8 C 12,6 C 0,0 km/h (0 Bft)
01.10.2023 00:45 12,7 C 12,7 C 83 % 1025,7 hPa 0,0 l/m 0,0 km/h (0 Bft) S-SW 213 0 min 0 W/m 9,9 C 12,7 C 0,0 km/h (0 Bft)
01.10.2023 00:40 12,8 C 12,8 C 83 % 1025,7 hPa 0,0 l/m 0,0 km/h (0 Bft) SW 219 0 min 0 W/m 10,0 C 12,8 C 0,0 km/h (0 Bft)
01.10.2023 00:35 12,9 C 12,8 C 83 % 1025,6 hPa 0,0 l/m 0,0 km/h (0 Bft) SW 218 0 min 0 W/m 10,1 C 12,9 C 0,0 km/h (0 Bft)
01.10.2023 00:30 12,9 C 12,9 C 82 % 1025,7 hPa 0,0 l/m 0,0 km/h (0 Bft) SW 218 0 min 0 W/m 9,9 C 12,9 C 0,0 km/h (0 Bft)
01.10.2023 00:25 13,1 C 13,1 C 82 % 1025,6 hPa 0,0 l/m 0,0 km/h (0 Bft) SW 218 0 min 0 W/m 10,1 C 13,1 C 0,0 km/h (0 Bft)
01.10.2023 00:20 13,1 C 13,1 C 83 % 1025,5 hPa 0,0 l/m 0,0 km/h (0 Bft) SW 218 0 min 0 W/m 10,3 C 13,1 C 0,0 km/h (0 Bft)
01.10.2023 00:15 13,2 C 13,2 C 82 % 1025,5 hPa 0,0 l/m 0,0 km/h (0 Bft) SW 218 0 min 0 W/m 10,2 C 13,2 C 0,0 km/h (0 Bft)
01.10.2023 00:10 13,2 C 13,2 C 82 % 1025,5 hPa 0,0 l/m 0,0 km/h (0 Bft) SW 218 0 min 0 W/m 10,2 C 13,2 C 0,0 km/h (0 Bft)
01.10.2023 00:05 13,3 C 13,3 C 82 % 1025,6 hPa 0,0 l/m 0,0 km/h (0 Bft) SW 218 0 min 0 W/m 10,3 C 13,3 C 0,0 km/h (0 Bft)
01.10.2023 00:00 13,4 C 13,3 C 82 % 1025,4 hPa 0,0 l/m 0,0 km/h (0 Bft) SW 219 0 min 0 W/m 10,4 C 13,4 C 0,0 km/h (0 Bft)
_ Min-Zeit 07:38 07:38 14:25 14:35 - 00:00 - - - - 07:20 07:38 00:00
Minimum _ 8,5 C 8,5 C 55 % 1024,1 hPa - 0,0 km/h (0 Bft) - - - - 6,7 C 8,5 C 0,0 km/h (0 Bft)
_ Max-Zeit 14:35 14:25 10:18 10:10 00:00 10:00 - - 00:00 00:00 12:05 14:35 13:10
Maximum _ 21,7 C 21,5 C 96 % 1026,2 hPa 0,0 l/m 2,4 km/h
NO (1 Bft)
- - 0 min 0 W/m 14,1 C 21,7 C 9,7 km/h
O-SO (2 Bft)
Durchschnitt _ 12,5 C 12,4 C 84 % 1025,5 hPa #0,0 l/m 0,0 km/h (0 Bft) NO - #0 min. 0 W/m 9,7 C 12,5 C 0,5 km/h (0 Bft)